Hourly Weather Gogolevo

Today, 15 May, Saturday

Time Temperature Precipitation Wind Pressure Humidity
00:00 +8°C° 0 mm 1 mps 749 mmHg 89%
01:00 +7°C° 0 mm 0 mps 749 mmHg 89%
02:00 +7°C° 0 mm 0 mps 750 mmHg 88%
03:00 +8°C° 0 mm 1 mps 750 mmHg 86%
04:00 +9°C° 0 mm 1 mps 750 mmHg 84%
05:00 +10°C° 0 mm 1 mps 750 mmHg 83%
06:00 +11°C° 0 mm 1 mps 750 mmHg 82%
07:00 +12°C° 0 mm 2 mps 750 mmHg 81%
08:00 +13°C° 0 mm 2 mps 750 mmHg 82%
09:00 +13°C° 0 mm 2 mps 751 mmHg 83%
10:00 +14°C° 0 mm 2 mps 751 mmHg 84%
11:00 +12°C° 0.1 mm 3 mps 751 mmHg 86%
12:00 +12°C° 0.1 mm 3 mps 751 mmHg 89%
13:00 +11°C° 0.1 mm 4 mps 751 mmHg 91%
14:00 +11°C° 0 mm 3 mps 751 mmHg 90%
15:00 +11°C° 0 mm 3 mps 752 mmHg 89%
16:00 +12°C° 0 mm 2 mps 752 mmHg 88%
17:00 +10°C° 0 mm 2 mps 752 mmHg 89%
18:00 +10°C° 0 mm 2 mps 751 mmHg 90%
19:00 +10°C° 0 mm 2 mps 751 mmHg 91%
20:00 +9°C° 0 mm 2 mps 751 mmHg 92%
21:00 +9°C° 0 mm 3 mps 751 mmHg 93%
22:00 +8°C° 0 mm 3 mps 751 mmHg 94%
23:00 +8°C° 0 mm 3 mps 751 mmHg 94%

Tomorrow, 16 May, Sunday

Time Temperature Precipitation Wind Pressure Humidity
00:00 +8°C° 0 mm 3 mps 751 mmHg 94%
01:00 +8°C° 0 mm 3 mps 751 mmHg 94%
02:00 +8°C° 0 mm 3 mps 751 mmHg 93%
03:00 +8°C° 0 mm 3 mps 751 mmHg 92%
04:00 +8°C° 0 mm 3 mps 751 mmHg 92%
05:00 +9°C° 0.2 mm 3 mps 751 mmHg 90%
06:00 +10°C° 0.2 mm 4 mps 751 mmHg 89%
07:00 +11°C° 0.2 mm 4 mps 751 mmHg 87%
08:00 +12°C° 0.3 mm 4 mps 751 mmHg 87%
09:00 +13°C° 0.3 mm 4 mps 751 mmHg 86%
10:00 +13°C° 0.3 mm 3 mps 751 mmHg 85%
11:00 +14°C° 0.2 mm 4 mps 750 mmHg 83%
12:00 +15°C° 0.2 mm 4 mps 750 mmHg 81%
13:00 +17°C° 0.2 mm 4 mps 750 mmHg 80%
14:00 +17°C° 0.6 mm 4 mps 750 mmHg 80%
15:00 +16°C° 0.6 mm 3 mps 749 mmHg 80%
16:00 +16°C° 0.6 mm 3 mps 749 mmHg 81%
17:00 +14°C° 0.4 mm 3 mps 749 mmHg 85%
18:00 +13°C° 0.4 mm 3 mps 749 mmHg 89%
19:00 +12°C° 0.4 mm 3 mps 749 mmHg 93%
20:00 +11°C° 0.9 mm 3 mps 749 mmHg 94%
21:00 +12°C° 0.9 mm 2 mps 749 mmHg 95%
22:00 +10°C° 0.9 mm 2 mps 748 mmHg 97%
23:00 +10°C° 1 mm 2 mps 748 mmHg 97%

Day after tomorrow, 17 May, Monday

Time Temperature Precipitation Wind Pressure Humidity
00:00 +10°C° 1 mm 2 mps 748 mmHg 97%
01:00 +10°C° 1 mm 2 mps 748 mmHg 97%
02:00 +9°C° 0 mm 3 mps 748 mmHg 96%
03:00 +9°C° 0 mm 3 mps 748 mmHg 96%
04:00 +8°C° 0 mm 4 mps 748 mmHg 95%
05:00 +10°C° 0 mm 4 mps 749 mmHg 92%
06:00 +11°C° 0 mm 4 mps 749 mmHg 90%
07:00 +12°C° 0 mm 4 mps 749 mmHg 87%
08:00 +13°C° 0.2 mm 4 mps 749 mmHg 81%
09:00 +15°C° 0.2 mm 4 mps 749 mmHg 75%
10:00 +17°C° 0.2 mm 3 mps 749 mmHg 70%
11:00 +17°C° 0.5 mm 3 mps 749 mmHg 71%
12:00 +17°C° 0.5 mm 3 mps 749 mmHg 73%
13:00 +17°C° 0.5 mm 3 mps 749 mmHg 75%
14:00 +16°C° 0.4 mm 3 mps 749 mmHg 76%
15:00 +16°C° 0.4 mm 2 mps 749 mmHg 77%
16:00 +16°C° 0.4 mm 2 mps 749 mmHg 78%
17:00 +15°C° 0.4 mm 2 mps 749 mmHg 82%
18:00 +14°C° 0.4 mm 2 mps 749 mmHg 85%
19:00 +14°C° 0.4 mm 2 mps 749 mmHg 89%
20:00 +13°C° 0.1 mm 2 mps 749 mmHg 90%
21:00 +13°C° 0.1 mm 2 mps 749 mmHg 92%
22:00 +12°C° 0.1 mm 2 mps 749 mmHg 93%
23:00 +12°C° 0.3 mm 2 mps 749 mmHg 94%

18 May, Tuesday

Time Temperature Precipitation Wind Pressure Humidity
00:00 +12°C° 0.3 mm 2 mps 748 mmHg 95%
01:00 +10°C° 0.3 mm 2 mps 748 mmHg 95%
02:00 +10°C° 1.4 mm 2 mps 748 mmHg 96%
03:00 +10°C° 1.4 mm 2 mps 748 mmHg 96%
04:00 +11°C° 1.4 mm 1 mps 748 mmHg 97%
05:00 +11°C° 2.2 mm 1 mps 748 mmHg 97%
06:00 +11°C° 2.2 mm 1 mps 748 mmHg 97%
07:00 +11°C° 2.2 mm 1 mps 748 mmHg 97%
08:00 +10°C° 1.4 mm 2 mps 748 mmHg 97%
09:00 +10°C° 1.4 mm 2 mps 748 mmHg 96%
10:00 +10°C° 1.4 mm 3 mps 748 mmHg 96%
11:00 +10°C° 0.3 mm 3 mps 748 mmHg 94%
12:00 +10°C° 0.3 mm 3 mps 749 mmHg 92%
13:00 +10°C° 0.3 mm 3 mps 749 mmHg 90%
14:00 +11°C° 0 mm 4 mps 749 mmHg 88%
15:00 +11°C° 0 mm 4 mps 749 mmHg 86%
16:00 +12°C° 0 mm 4 mps 749 mmHg 84%
17:00 +11°C° 0 mm 4 mps 749 mmHg 86%
18:00 +10°C° 0 mm 3 mps 750 mmHg 88%
19:00 +9°C° 0 mm 2 mps 750 mmHg 91%
20:00 +9°C° 0 mm 3 mps 750 mmHg 92%
21:00 +8°C° 0 mm 3 mps 750 mmHg 93%
22:00 +7°C° 0 mm 4 mps 750 mmHg 94%
23:00 +7°C° 0 mm 4 mps 750 mmHg 95%

19 May, Wednesday

Time Temperature Precipitation Wind Pressure Humidity
00:00 +7°C° 0 mm 4 mps 750 mmHg 95%
01:00 +8°C° 0 mm 4 mps 750 mmHg 96%
02:00 +8°C° 0 mm 5 mps 751 mmHg 95%
03:00 +8°C° 0 mm 5 mps 751 mmHg 94%
04:00 +8°C° 0 mm 6 mps 751 mmHg 93%
05:00 +8°C° 0 mm 6 mps 751 mmHg 91%
06:00 +8°C° 0 mm 7 mps 751 mmHg 89%
07:00 +8°C° 0 mm 7 mps 752 mmHg 87%
08:00 +9°C° 0.1 mm 7 mps 752 mmHg 84%
09:00 +10°C° 0.1 mm 7 mps 753 mmHg 80%
10:00 +10°C° 0.1 mm 7 mps 753 mmHg 76%
11:00 +11°C° 0 mm 7 mps 753 mmHg 73%
12:00 +11°C° 0 mm 7 mps 753 mmHg 69%
13:00 +11°C° 0 mm 7 mps 753 mmHg 65%
14:00 +11°C° 0 mm 7 mps 754 mmHg 68%
15:00 +11°C° 0 mm 6 mps 754 mmHg 72%
16:00 +10°C° 0 mm 6 mps 754 mmHg 75%
17:00 +9°C° 0 mm 5 mps 754 mmHg 76%
18:00 +9°C° 0 mm 5 mps 754 mmHg 78%
19:00 +8°C° 0 mm 4 mps 754 mmHg 79%
20:00 +7°C° 0 mm 4 mps 754 mmHg 81%
21:00 +7°C° 0 mm 4 mps 754 mmHg 83%
22:00 +6°C° 0 mm 4 mps 754 mmHg 85%
23:00 +6°C° 0 mm 5 mps 754 mmHg 85%

20 May, Thursday

Time Temperature Precipitation Wind Pressure Humidity
00:00 +6°C° 0 mm 5 mps 754 mmHg 86%
01:00 +6°C° 0 mm 5 mps 754 mmHg 87%
02:00 +6°C° 0 mm 5 mps 754 mmHg 88%
03:00 +6°C° 0 mm 5 mps 754 mmHg 89%
04:00 +6°C° 0 mm 5 mps 754 mmHg 91%
05:00 +7°C° 0 mm 6 mps 754 mmHg 88%
06:00 +8°C° 0 mm 6 mps 754 mmHg 84%
07:00 +9°C° 0 mm 6 mps 754 mmHg 81%
08:00 +10°C° 0.1 mm 6 mps 755 mmHg 78%
09:00 +10°C° 0.1 mm 6 mps 755 mmHg 75%
10:00 +11°C° 0.1 mm 6 mps 755 mmHg 71%
11:00 +13°C° 0.2 mm 5 mps 755 mmHg 68%
12:00 +13°C° 0.2 mm 5 mps 755 mmHg 65%
13:00 +13°C° 0.2 mm 4 mps 755 mmHg 63%
14:00 +13°C° 0.1 mm 4 mps 755 mmHg 66%
15:00 +13°C° 0.1 mm 3 mps 755 mmHg 69%
16:00 +12°C° 0.1 mm 3 mps 755 mmHg 72%
17:00 +12°C° 0.1 mm 2 mps 754 mmHg 76%
18:00 +12°C° 0.1 mm 2 mps 754 mmHg 80%
19:00 +11°C° 0.1 mm 1 mps 754 mmHg 83%
20:00 +9°C° 0 mm 2 mps 754 mmHg 86%
21:00 +9°C° 0 mm 3 mps 754 mmHg 88%
22:00 +7°C° 0 mm 4 mps 753 mmHg 90%
23:00 +7°C° 0 mm 4 mps 753 mmHg 90%
Show more